Stations météo

réclame
Mon MeteoGroup
Angermünde, Allemagne (10291): Température de l'air & dewpoint: 16.11.2019 04:00:00 - 22.11.2019 04:00:00 (CET)Angermünde, Allemagne (10291): Température de l'air 5cm & Température de l'air -5cm: 16.11.2019 04:00:00 - 22.11.2019 04:00:00 (CET)Angermünde, Allemagne (10291): Température de l'air -20cm & Température de l'air -100cm: 16.11.2019 04:00:00 - 22.11.2019 04:00:00 (CET)Angermünde, Allemagne (10291): Vitesse du vent & gusts: 16.11.2019 04:00:00 - 22.11.2019 04:00:00 (CET)Angermünde, Allemagne (10291): Direction du vent: 16.11.2019 04:00:00 - 22.11.2019 04:00:00 (CET)Angermünde, Allemagne (10291): reduced air pressure: 16.11.2019 04:00:00 - 22.11.2019 04:00:00 (CET)Angermünde, Allemagne (10291): visibility: 16.11.2019 04:00:00 - 22.11.2019 04:00:00 (CET)Angermünde, Allemagne (10291): Ensoleillement: 16.11.2019 04:00:00 - 22.11.2019 04:00:00 (CET)Angermünde, Allemagne (10291): Quantités de précipitations: 16.11.2019 04:00:00 - 22.11.2019 04:00:00 (CET)
Date & Time tt [°C] td [°C] tt 5cm [°C] tt -5cm [°C] tt -20cm [°C] tt -100cm [°C] ff [km/h] ff [knt] fx [km/h] fx [knt] dd ppp [hPa] vv [km] sd [min] rr [mm]
22.11.2019 04:00:00 9,4 8,7 9,0 8,2 7,5 8,2 14 8 22 12 SSE 1009,5 4,3 0 0,4
22.11.2019 03:00:00 9,4 8,9 9,0 8,1 7,5 8,2 9 5 19 10 SE 1009,5 1,8 0 0,1
22.11.2019 02:00:00 9,4 8,8 9,0 8,1 7,5 8,2 9 5 17 9 SE 1009,5 3,7 0 0,1
22.11.2019 01:00:00 9,2 8,7 8,9 8,0 7,4 8,2 10 5 16 8 ESE 1009,4 2,6 0 0,1
22.11.2019 00:00:00 9,0 8,6 8,8 7,9 7,4 8,2 10 5 15 8 E 1009,6 3,0 0 0,0
21.11.2019 23:00:00 8,9 8,5 8,7 7,9 7,4 8,2 9 5 15 8 ESE 1009,8 7 0 0,6
21.11.2019 22:00:00 8,8 8,4 8,6 7,9 7,4 8,2 12 7 16 9 E 1009,9 11 0 1,7
21.11.2019 21:00:00 8,8 8,5 8,6 7,9 7,3 8,2 10 5 20 11 E 1010,1 8 0 2,7
21.11.2019 20:00:00 9,0 8,5 8,7 8,0 7,3 8,2 13 7 19 10 E 1010,1 8 0 1,3
21.11.2019 19:00:00 9,2 8,9 8,9 8,0 7,3 8,2 9 5 19 10 E 1010,3 1,6 0 1,5
21.11.2019 18:00:00 9,4 8,7 9,0 8,0 7,2 8,2 12 7 17 9 ESE 1010,6 2,3 0 0,9
21.11.2019 17:00:00 9,7 8,5 9,1 8,1 7,2 8,2 13 7 17 9 E 1010,9 6 0 0,1
21.11.2019 16:00:00 9,8 8,4 9,3 8,2 7,1 8,2 11 6 16 9 E 1010,9 7 0 0,0
21.11.2019 15:00:00 10,0 8,6 9,7 8,5 7,0 8,2 13 7 18 10 E 1011,1 6 0 0,0
21.11.2019 14:00:00 10,0 8,7 9,9 8,6 6,7 8,2 12 7 19 11 E 1011,4 6 0 0,0
21.11.2019 13:00:00 10,1 8,7 10,4 8,4 6,5 8,2 14 7 21 11 E 1011,9 6 0 0,0
21.11.2019 12:00:00 9,4 8,3 9,2 7,7 6,4 8,2 14 8 23 12 E 1012,8 4,6 0 0,0
21.11.2019 11:00:00 9,2 8,3 9,2 7,4 6,2 8,2 14 7 21 12 E 1013,0 4,4 0 0,0
21.11.2019 10:00:00 8,5 7,9 8,5 6,8 6,1 8,2 11 6 20 11 ENE 1013,6 3,3 0 0,0
21.11.2019 09:00:00 7,7 7,4 7,6 6,4 6,0 8,2 11 6 16 8 ENE 1014,0 1,2 0 0,0
21.11.2019 08:00:00 7,3 7,2 7,1 6,1 6,0 8,2 7 4 14 8 E 1014,1 1,0 0 0,0
21.11.2019 07:00:00 6,8 6,5 6,7 6,0 5,9 8,2 5 3 10 6 ENE 1014,3 0,2 0 0,0
21.11.2019 06:00:00 6,6 6,2 6,4 5,9 5,9 8,2 6 4 10 6 ENE 1014,6 0,4 0 0,0
21.11.2019 05:00:00 6,1 5,7 6,0 5,8 5,9 8,2 6 3 13 7 ENE 1015,0 0,7 0 0,0
21.11.2019 04:00:00 5,9 5,4 5,8 5,7 5,9 8,2 8 5 13 7 NE 1015,4 1,5 0 0,0
21.11.2019 03:00:00 5,9 5,4 5,8 5,7 5,9 8,2 8 4 13 7 ENE 1016,1 1,2 0 0,0
21.11.2019 02:00:00 6,1 5,3 5,9 5,6 5,8 8,2 10 5 16 9 E 1016,6 2,4 0 0,0
21.11.2019 01:00:00 6,0 5,0 5,8 5,6 5,8 8,2 12 7 17 9 E 1016,9 3,1 0 0,0
21.11.2019 00:00:00 6,0 4,9 5,8 5,6 5,8 8,2 13 7 19 11 E 1017,2 3,5 0 0,0
20.11.2019 23:00:00 6,0 5,1 5,9 5,6 5,8 8,2 10 6 14 8 E 1017,2 4,0 0 0,0
20.11.2019 22:00:00 5,7 5,1 5,5 5,6 5,8 8,2 3 2 6 3 NE 1017,6 3,1 0 0,0
20.11.2019 21:00:00 5,6 4,9 5,5 5,5 5,8 8,2 4 2 7 4 NE 1017,8 2,5 0 0,0
20.11.2019 20:00:00 5,7 5,0 5,3 5,6 5,8 8,2 2 1 4 2 ENE 1017,8 3,1 0 0,0
20.11.2019 19:00:00 5,7 5,0 5,5 5,6 5,8 8,3 4 2 9 5 SSE 1018,0 3,9 0 0,0
20.11.2019 18:00:00 5,7 4,7 5,6 5,7 5,8 8,3 5 3 10 5 SSE 1018,0 4,9 0 0,0
20.11.2019 17:00:00 5,7 5,0 5,6 5,7 5,8 8,3 6 3 11 6 SE 1017,9 4,2 0 0,0
20.11.2019 16:00:00 5,8 4,7 5,5 5,9 5,8 8,3 6 3 9 5 SE 1017,9 5 0 0,0
20.11.2019 15:00:00 5,9 4,7 5,6 6,0 5,7 8,3 3 2 8 4 ESE 1017,9 7 0 0,0
20.11.2019 14:00:00 6,0 4,7 5,8 6,1 5,6 8,3 4 2 7 4 SE 1017,7 6 0 0,0
20.11.2019 13:00:00 6,0 4,6 5,8 6,0 5,5 8,3 3 2 5 3 E 1018,2 9 0 0,0
20.11.2019 12:00:00 5,9 4,9 5,7 5,7 5,5 8,3 2 1 7 4 NNW 1018,5 9 0 0,0
20.11.2019 11:00:00 5,6 4,7 5,5 5,4 5,4 8,3 5 3 11 6 NNW 1018,5 9 0 0,0
20.11.2019 10:00:00 5,3 4,4 5,1 5,1 5,4 8,3 6 3 14 8 N 1018,7 12 0 0,0
20.11.2019 09:00:00 5,2 4,2 4,9 4,9 5,3 8,3 9 5 15 8 NNW 1018,8 20 0 0,0
20.11.2019 08:00:00 5,0 4,0 4,6 4,8 5,3 8,3 10 5 20 11 NNW 1018,8 25 0 0,0
20.11.2019 07:00:00 4,9 3,9 4,6 4,8 5,3 8,3 9 5 22 12 N 1019,1 17 0 0,0
20.11.2019 06:00:00 4,7 4,2 4,5 4,7 5,4 8,3 9 5 19 11 N 1019,4 8 0 0,4
20.11.2019 05:00:00 4,6 4,1 4,4 4,7 5,4 8,3 11 6 15 8 NNE 1019,6 4,5 0 1,2
20.11.2019 04:00:00 4,6 4,0 4,4 4,7 5,4 8,3 8 4 10 6 NNE 1019,8 2,7 0 1,4
20.11.2019 03:00:00 4,6 4,2 4,4 4,7 5,4 8,3 4 2 7 4 NW 1019,9 3,8 0 1,0
20.11.2019 02:00:00 4,6 4,1 4,3 4,7 5,4 8,3 3 2 5 3 NNW 1019,9 0,7 0 1,2
20.11.2019 01:00:00 4,6 4,1 4,3 4,8 5,4 8,3 2 1 16 9 NNE 1019,9 6 0 0,8
20.11.2019 00:00:00 4,7 4,2 4,5 4,8 5,5 8,3 13 7 16 9 WNW 1019,8 10 0 1,2
19.11.2019 23:00:00 4,8 3,9 4,3 4,8 5,5 8,3 2 1 4 2 N 1020,1 8 0 0,6
19.11.2019 22:00:00 5,1 3,6 4,3 4,8 5,5 8,3 2 1 9 5 SW 1020,1 19 0 0,2
19.11.2019 21:00:00 5,3 3,3 4,3 4,8 5,5 8,3 4 2 15 8 SE 1020,1 31 0 0,0
19.11.2019 20:00:00 5,7 3,2 4,7 4,8 5,6 8,3 3 2 11 6 SSE 1019,5 42 0 0,0
19.11.2019 19:00:00 6,0 2,5 5,1 4,7 5,7 8,3 5 3 12 7 WSW 1019,1 56 0 0,0
19.11.2019 18:00:00 5,6 2,2 4,6 4,6 5,8 8,3 5 3 11 6 WSW 1018,8 61 0 0,0
19.11.2019 17:00:00 6,0 1,9 4,2 4,8 6,0 8,3 8 4 14 8 SSW 1018,4 56 0 0,0
19.11.2019 16:00:00 7,0 1,9 5,4 5,7 6,0 8,3 10 6 26 14 SSW 1017,6 64 4 0,0
19.11.2019 15:00:00 8,0 2,1 7,6 6,8 5,9 8,3 16 9 29 16 SSW 1017,0 57 17 0,0
19.11.2019 14:00:00 9,1 2,5 9,8 7,4 5,7 8,3 16 8 28 15 SSW 1016,5 75 56 0,0
19.11.2019 13:00:00 8,8 2,1 9,4 7,0 5,4 8,3 17 9 36 19 SSW 1016,0 58 60 0,0
19.11.2019 12:00:00 8,6 2,4 9,7 6,5 5,2 8,3 16 8 39 21 SW 1015,5 75 60 0,0
19.11.2019 11:00:00 7,9 2,4 8,8 5,6 5,0 8,4 18 10 38 21 SSW 1015,1 64 60 0,0
19.11.2019 10:00:00 7,1 2,4 7,8 4,8 4,9 8,4 21 11 45 24 SW 1014,0 75 31 0,0
19.11.2019 09:00:00 6,4 1,9 5,6 4,3 4,9 8,4 28 15 44 24 SSW 1013,6 60 10 0,0
19.11.2019 08:00:00 6,4 1,4 5,9 4,2 4,8 8,4 29 15 51 28 SSW 1012,8 66 0 0,0
19.11.2019 07:00:00 6,4 1,0 5,8 4,0 4,8 8,4 29 15 47 26 SSW 1011,4 75 0 0,0
19.11.2019 06:00:00 6,2 0,8 5,6 3,8 4,8 8,4 27 15 43 23 S 1010,7 62 0 0,0
19.11.2019 05:00:00 5,2 0,8 4,7 3,4 4,9 8,4 19 11 37 20 S 1010,8 70 0 0,0
19.11.2019 04:00:00 4,5 1,0 3,6 3,2 4,9 8,4 17 9 34 18 SSE 1010,8 50 0 0,0
19.11.2019 03:00:00 4,7 1,0 4,1 3,1 5,1 8,4 20 11 31 17 S 1011,4 54 0 0,0
19.11.2019 02:00:00 4,5 0,6 3,0 3,1 5,3 8,4 14 8 32 17 SSE 1011,0 65 0 0,0
19.11.2019 01:00:00 5,1 0,7 3,6 3,4 5,5 8,4 18 10 30 16 S 1010,9 60 0 0,0
19.11.2019 00:00:00 5,1 1,1 3,6 3,7 5,7 8,4 19 10 31 17 S 1011,0 64 0 0,0
18.11.2019 23:00:00 5,5 1,5 4,1 4,1 5,9 8,4 19 10 30 16 S 1010,5 45 0 0,0
18.11.2019 22:00:00 5,7 2,4 4,0 4,8 6,1 8,4 13 7 29 16 S 1010,2 41 0 0,0
18.11.2019 21:00:00 6,8 3,4 5,3 5,8 6,2 8,4 17 9 29 16 S 1010,1 36 0 0,0
18.11.2019 20:00:00 7,8 4,6 7,3 6,5 6,2 8,5 21 11 46 25 SSW 1009,7 35 0 0,0
18.11.2019 19:00:00 8,0 5,9 7,6 6,6 6,1 8,5 18 10 28 15 SSW 1009,0 25 0 0,0
18.11.2019 18:00:00 7,8 6,2 7,3 6,8 6,1 8,5 12 7 29 16 SSW 1008,2 17 0 0,0
18.11.2019 17:00:00 8,1 6,6 7,8 7,1 6,0 8,5 16 9 35 19 SSW 1007,4 17 0 0,0
18.11.2019 16:00:00 9,4 8,1 8,8 7,4 5,8 8,5 17 9 26 14 SSW 1006,2 9 0 0,0
18.11.2019 15:00:00 10,9 7,9 10,3 7,4 5,6 8,5 12 7 20 11 SSE 1005,5 22 0 0,0
18.11.2019 14:00:00 11,1 7,7 10,5 7,6 5,3 8,5 10 6 16 9 ESE 1005,2 24 0 0,0
18.11.2019 13:00:00 10,7 7,7 9,6 7,4 5,0 8,5 5 3 16 9 ESE 1005,2 21 0 0,0
18.11.2019 12:00:00 10,7 7,9 10,0 7,3 4,5 8,5 11 6 14 8 ESE 1005,7 20 1 0,0
18.11.2019 11:00:00 10,2 7,2 9,7 6,1 4,2 8,5 6 3 16 9 E 1006,1 14 9 0,0
18.11.2019 10:00:00 8,9 6,4 7,5 3,9 4,1 8,5 11 6 18 10 SE 1006,0 18 0 0,0
18.11.2019 09:00:00 7,3 6,1 5,1 2,8 4,1 8,6 6 3 14 7 ESE 1006,0 17 0 0,0
18.11.2019 08:00:00 4,3 3,4 2,4 2,8 4,1 8,6 5 3 12 6 ESE 1005,9 6 0 0,0
18.11.2019 07:00:00 5,8 5,1 3,3 2,5 4,1 8,6 4 2 9 5 SE 1005,7 7 0 0,0
18.11.2019 06:00:00 6,3 5,9 2,7 2,5 4,1 8,6 4 2 15 8 NE 1005,2 15 0 0,0
18.11.2019 05:00:00 6,5 5,4 4,6 2,6 4,2 8,6 12 6 14 8 E 1005,3 15 0 0,0
18.11.2019 04:00:00 7,0 6,1 4,2 2,8 4,2 8,6 11 6 17 9 E 1005,5 12 0 0,0
18.11.2019 03:00:00 6,0 5,5 2,6 2,6 4,2 8,6 10 5 15 8 E 1005,8 10 0 0,0
18.11.2019 02:00:00 5,3 5,0 2,5 2,6 4,3 8,6 10 5 12 7 E 1006,5 3,4 0 0,0
18.11.2019 01:00:00 3,6 2,9 1,8 2,6 4,4 8,6 7 4 12 6 E 1007,0 0,5 0 0,0
18.11.2019 00:00:00 4,5 4,1 3,3 2,6 4,5 8,6 8 5 12 6 ENE 1007,4 0,2 0 0,0
17.11.2019 23:00:00 5,1 4,7 3,1 2,6 4,6 8,6 9 5 13 7 NE 1007,7 0,8 0 0,0
17.11.2019 22:00:00 5,2 4,8 2,6 2,8 4,7 8,6 7 4 15 8 NNE 1008,4 2,2 0 0,0
17.11.2019 21:00:00 4,7 4,2 3,1 3,0 4,8 8,6 11 6 18 10 NNE 1008,9 4,0 0 0,0
17.11.2019 20:00:00 4,7 4,1 2,7 3,1 4,9 8,7 10 6 17 9 NNE 1009,6 8 0 0,0
17.11.2019 19:00:00 4,8 3,9 3,6 3,4 5,0 8,7 13 7 21 12 NNE 1009,9 9 0 0,0
17.11.2019 18:00:00 4,5 3,5 3,1 3,6 5,1 8,7 12 6 18 10 NNE 1010,8 9 0 0,0
17.11.2019 17:00:00 4,8 3,7 3,4 4,2 5,1 8,7 12 6 22 12 NNE 1011,3 9 0 0,0
17.11.2019 16:00:00 5,2 3,9 4,0 4,8 5,0 8,7 14 7 22 12 NNE 1011,6 10 0 0,0
17.11.2019 15:00:00 5,9 4,4 5,4 5,4 4,9 8,7 13 7 24 13 NNE 1012,5 10 2 0,0
17.11.2019 14:00:00 5,7 4,4 5,6 5,1 4,7 8,7 14 8 25 13 NNE 1012,8 10 0 0,0
17.11.2019 13:00:00 4,9 3,8 4,8 4,6 4,6 8,7 13 7 21 11 NNE 1014,0 7 0 0,1
17.11.2019 12:00:00 4,4 3,6 4,4 4,5 4,5 8,7 9 5 20 11 NNE 1015,1 6 0 0,1
17.11.2019 11:00:00 3,7 2,9 4,0 4,1 4,3 8,7 14 7 21 11 NNE 1015,6 7 0 0,0
17.11.2019 10:00:00 2,7 2,5 3,4 3,5 4,2 8,7 5 3 9 5 N 1016,4 3,1 0 0,0
17.11.2019 09:00:00 0,9 0,5 1,6 2,6 4,2 8,7 5 3 9 5 NNW 1017,0 1,4 0 0,0
17.11.2019 08:00:00 0,2 -0,1 0,2 2,1 4,2 8,7 4 2 7 4 N 1017,2 1,1 0 0,0
17.11.2019 07:00:00 -0,1 -0,5 -0,1 2,0 4,3 8,7 0 0 4 2 N 1017,2 0,1 0 0,0
17.11.2019 06:00:00 0,5 0,0 0,2 1,8 4,4 8,7 2 1 9 5 NNE 1016,8 0,1 0 0,0
17.11.2019 05:00:00 1,4 1,2 0,9 1,9 4,5 8,7 7 4 16 8 SSE 1016,9 0,4 0 0,0
17.11.2019 04:00:00 1,4 1,1 0,7 1,8 4,6 8,7 7 4 16 9 SSE 1016,5 0,3 0 0,0
17.11.2019 03:00:00 1,1 0,8 -0,4 1,7 4,8 8,7 5 3 11 6 S 1016,5 0,3 0 0,0
17.11.2019 02:00:00 1,6 0,9 -0,3 1,8 5,1 8,7 6 4 14 7 SSE 1016,0 4,9 0 0,0
17.11.2019 01:00:00 2,0 1,3 -0,1 2,1 5,3 8,7 7 4 14 8 SSE 1015,7 6 0 0,0
17.11.2019 00:00:00 2,5 1,5 0,6 2,6 5,5 8,7 6 4 21 11 S 1015,2 9 0 0,0
16.11.2019 23:00:00 3,3 2,0 2,0 3,0 5,8 8,7 16 8 22 12 SSW 1014,7 9 0 0,0
16.11.2019 22:00:00 3,6 2,3 2,1 3,4 6,0 8,7 10 5 18 10 SSW 1014,3 8 0 0,0
16.11.2019 21:00:00 4,1 2,6 2,5 3,8 6,2 8,7 11 6 18 10 S 1013,7 12 0 0,0
16.11.2019 20:00:00 4,9 2,7 3,3 4,5 6,4 8,7 13 7 25 13 SSW 1013,3 17 0 0,0
16.11.2019 19:00:00 5,2 2,7 4,8 4,8 6,6 8,7 15 8 24 13 SSW 1012,4 18 0 0,0
16.11.2019 18:00:00 5,7 2,4 4,4 5,2 6,8 8,7 13 7 35 19 SW 1010,8 21 0 0,0
16.11.2019 17:00:00 6,1 2,3 5,6 6,1 6,9 8,7 16 9 48 26 SW 1010,0 29 0 0,0
16.11.2019 16:00:00 6,3 2,9 6,1 6,6 7,0 8,7 20 11 45 25 SW 1009,2 22 0 0,0
16.11.2019 15:00:00 7,2 4,3 7,0 7,1 7,0 8,7 19 10 35 19 SW 1007,9 31 0 0,0
16.11.2019 14:00:00 6,9 5,2 6,8 7,6 7,0 8,7 22 12 40 22 SW 1006,5 14 0 0,0
16.11.2019 13:00:00 8,8 5,7 8,7 8,2 6,8 8,7 27 15 44 24 SSW 1005,2 16 0 0,0
16.11.2019 12:00:00 10,4 7,5 9,4 8,3 6,6 8,7 20 11 36 19 SSW 1004,1 15 0 0,0
16.11.2019 11:00:00 9,9 7,7 9,2 8,0 6,4 8,7 19 10 39 21 S 1003,5 13 0 0,0
16.11.2019 10:00:00 9,6 7,5 8,9 7,3 6,3 8,7 19 10 31 17 SSE 1003,5 13 22 0,0
16.11.2019 09:00:00 8,5 7,4 8,0 6,7 6,2 8,7 16 8 28 15 SSE 1003,3 7 0 0,4
16.11.2019 08:00:00 8,3 6,6 7,4 6,2 6,2 8,7 9 5 22 12 SE 1003,5 5 0 0,0
16.11.2019 07:00:00 8,2 6,5 7,5 5,8 6,2 8,7 14 8 20 11 ESE 1003,0 11 0 0,0
16.11.2019 06:00:00 7,1 6,0 5,3 5,7 6,3 8,7 6 3 9 5 NNE 1002,9 7 0 0,0
16.11.2019 05:00:00 8,4 6,9 6,9 6,2 6,3 8,7 6 4 19 10 ESE 1003,7 9 0 0,0
16.11.2019 04:00:00 8,2 6,7 7,0 6,3 6,3 8,7 14 8 20 11 E 1004,2 8 0 0,0

tt = Température de l'air
td = dewpoint
tt 5cm = Température de l'air 5cm
tt -5cm = Température de l'air -5cm
tt -20cm = Température de l'air -20cm
tt -100cm = Température de l'air -100cm
ff = Vitesse du vent
fx = gusts
dd = Direction du vent
ppp = reduced air pressure
vv = visibility
sd = Ensoleillement
rr = Quantités de précipitations

stations d'obs. à proximité